{"data":{"norad_id":64185,"intl_designator":"2025-113R","name":"STARLINK-34063","alt_names":[],"object_type":"PAYLOAD","status":"ACTIVE","operator":null,"country":"US","launch_date":"2025-05-28","launch_site_code":"AFETR","launch_vehicle":null,"mission":null,"orbit_class":"UNKNOWN","rcs_meters":null,"size_class":null,"mass_kg":null,"dimensions":null,"purposes":["comms"],"wikipedia_slug":null,"has_3d_model":false,"image_url":null,"decayed_at":null,"tle_current":{"epoch":"2026-05-25T03:18:59.798304Z","epoch_age_seconds":56974,"freshness":"FRESH","line1":"1 64185U 25113R   26145.13819211  .00020807  00000+0  68001-3 0  9994","line2":"2 64185  53.1585  95.7574 0001201  69.9536 290.1594 15.31718023 56778","mean_motion":15.31718023,"eccentricity":0.0001201,"inclination_deg":53.1585,"raan_deg":95.7574,"arg_perigee_deg":69.9536,"mean_anomaly_deg":290.1594,"bstar":0.00068001,"rev_number":5677,"period_min":94.012081752465,"perigee_km":469.86372645255,"apogee_km":471.50881380203,"semimajor_km":6848.8232701273,"source":"CELESTRAK","updated_at":"2026-05-25T13:38:20.312572Z"}}}